GLOBALSTAR M047

Satellite information

Favourite Embed

Satellite Type and Status

PAYLOADIN ORBIT

Key statistics

Satellite GLOBALSTAR M047 at a glance.

Uptime

9524

Days in orbit

Revolutions

≈ 11.3

Per day

Orbit

MEO

Medium Earth Orbit

Inclination

52.0

Latest

Satellite identification and parameters

Extended collection of information and parameters for GLOBALSTAR M047.

Object identification

Identified? True

Debris? False

Object name: GLOBALSTAR M047

International designator: 1999-031C

Object number (NORAD): 25772

Object ID (CCSDS): 25772

Country: GLOBALSTAR (GLOB)

Current information (Y/N): Y

RCS size: LARGE

Orbital parameters

Period: 127.216 minutes

Inclination: 51.9809 deg

SMA: 8378.94 km

Apoapsis: 2014.871 km

Periapsis: 1986.738 km

RAAN: 144.5818 deg

Eccentricy: 0.0016788

Argument of periapsis: 297.7313 deg

Mean anomaly: 62.179 deg

Mean motion: 11.31928941 rev/day

Mean motion (dot): -0.00000073 rev/day2

B* drag term: -0.000083364 1/REarth

Two-line elements (TLE)

Creation date: July 6, 2025, 10:36 p.m.

Reference frame: TEME

Reference center: EARTH

Epoch: July 6, 2025, 8:12 p.m. UTC

TLE line 0: 0 GLOBALSTAR M047

TLE line 1: 1 25772U 99031C 25187.84190192 -.00000073 00000-0 -83364-4 0 9992

TLE line 2: 2 25772 51.9809 144.5818 0016788 297.7313 62.1790 11.31928941148108

Live tracking on map

Real-time ground track for satellite GLOBALSTAR M047.

In-orbit conjunctions

There are no conjunctions computed for GLOBALSTAR M047, at the moment. Check back to stay up to date, as we update our databases every day.

Go to all conjunctions

Associated space launch

The Globalstar global mobile communications network offers global, digital real time voice, data and fax via a constellation of 48 minisatellites. The constellation operates in a 1410 km orbit inclined at 52 degrees, and will also have 8 spares. The satellites were built by Space Systems Loral and Alenia Aerospazio in Rome, Italy.

GLOBALSTAR M047 was lifted into orbit during the mission ‘Delta 7420-10C | Globalstar 25,47,49,52’, on board a Delta 7420-10C space rocket.

The launch took place on June 10, 1999, 1:48 p.m. from Space Launch Complex 17B.

For more information about the launch, click the button.

Launch to space Delta 7420-10C | Globalstar 25,47,49,52
Delta 7420-10C | Globalstar 25,47,49,52

Agency: N/A

Status: Launch Successful

Launch date: June 10, 1999, 1:48 p.m. UTC

Rocket: Delta 7420-10C

Launch pad: Space Launch Complex 17B

Location: Cape Canaveral SFS, FL, USA

...

Latest news about this satellite

There are no fresh news available about this satellite. Check back as we update our databases every day.


Newsletter sign-up

Weekly statistics, charts and insights to help you stay on top of the space industry.